Medicine Lodge, KS

3:43 AM CDT on July 21, 2017 (GMT -0500)
Medicine Lodge

Weather History for KP28 - November, 2011

Change the Weather History Date:

Saturday, November 12, 2011

  Actual Average Record
Temperature  
Mean Temperature 59 °F 47 °F  
Max Temperature 77 °F 60 °F 83 °F (1910)
Min Temperature 41 °F 34 °F 9 °F (1911)
Degree Days  
Heating Degree Days 6 18  
Month to date heating degree days 185  
Since 1 July heating degree days 454  
Cooling Degree Days 0 0  
Month to date cooling degree days 0  
Year to date cooling degree days 1769  
Growing Degree Days 9 (Base 50)    
Moisture  
Dew Point 35 °F    
Average Humidity 53    
Maximum Humidity 82    
Minimum Humidity 16    
Precipitation  
Precipitation 0.00 in 0.03 in 2.60 in (2010)
Month to date precipitation 0.53  
Year to date precipitation 25.82  
Snow  
Snow 0.00 in 0.00 in - ()
Month to date snowfall 0.0  
Since 1 July snowfall 0.0  
Since 1 September snowfall 0.0  
Snow Depth -    
Sea Level Pressure  
Sea Level Pressure 29.56 in    
Wind  
Wind Speed 8 mph (South)    
Max Wind Speed 18 mph    
Max Gust Speed 24 mph    
T = Trace of Precipitation, MM = Missing Value Source: NWS Daily Summary

Daily Weather History Graph

Daily Weather History Graph

Search for Another Location

Airport or City:

Trip Planner

Search our weather history database for the weather conditions in past years. The results will help you decide how hot, cold, wet, or windy it might be!

Date:

Astronomy

Nov. 12, 2011 Rise Set
Actual Time 7:10 AM CST 5:26 PM CST
Civil Twilight 6:42 AM CST 5:53 PM CST
Nautical Twilight 6:11 AM CST 6:25 PM CST
Astronomical Twilight 5:40 AM CST 6:56 PM CST
Moon 6:45 PM CST (11/12) 8:51 AM CST (11/12)
Length of Visible Light 11h 11m
Length of Day
10h 16m
Full, 97% of the Moon is Illuminated
Nov 12
Full
Nov 18
Last Quarter
Nov 25
New
Dec 2
First Quarter
Dec 10
Full

Hourly Weather History & Observations

Time (CST) Temp. Windchill Dew Point Humidity Pressure Visibility Wind Dir Wind Speed Gust Speed Precip Events Conditions
12:56 AM 42.1 °F 39.2 °F 36.0 °F 79% 29.72 in - ESE 4.6 mph - N/A   Unknown
1:56 AM 42.1 °F 38.4 °F 36.0 °F 79% 29.68 in - ESE 5.8 mph - N/A   Unknown
2:56 AM 42.1 °F 37.7 °F 36.0 °F 79% 29.67 in - SE 6.9 mph - N/A   Unknown
3:56 AM 41.0 °F 37.1 °F 36.0 °F 82% 29.63 in - SSE 5.8 mph - N/A   Unknown
4:56 AM 43.0 °F 37.7 °F 35.1 °F 74% 29.60 in - SSE 9.2 mph - N/A   Unknown
5:56 AM 43.0 °F 39.5 °F 35.1 °F 74% 29.61 in - SSE 5.8 mph - N/A   Unknown
6:56 AM 43.0 °F 38.8 °F 34.0 °F 71% 29.59 in - SSE 6.9 mph - N/A   Unknown
7:56 AM 46.0 °F 41.9 °F 35.1 °F 66% 29.58 in - SSE 8.1 mph - N/A   Unknown
8:56 AM 50.0 °F - 36.0 °F 59% 29.57 in - South 13.8 mph - N/A   Unknown
10:56 AM 57.0 °F - 35.1 °F 44% 29.56 in - SSW 11.5 mph - N/A   Unknown
11:56 AM 63.0 °F - 33.1 °F 33% 29.54 in - WSW 18.4 mph 23.0 mph N/A   Unknown
12:56 PM 69.1 °F - 30.0 °F 23% 29.52 in - West 13.8 mph 24.2 mph N/A   Unknown
1:56 PM 73.0 °F - 30.9 °F 21% 29.51 in - WSW 13.8 mph - N/A   Unknown
2:56 PM 77.0 °F - 27.0 °F 16% 29.50 in - WSW 11.5 mph 21.9 mph N/A   Unknown
3:56 PM 75.9 °F - 26.1 °F 16% 29.52 in - WSW 9.2 mph - N/A   Unknown
4:56 PM 73.0 °F - 28.9 °F 20% 29.54 in - Calm Calm - N/A   Unknown
5:56 PM 66.9 °F - 28.0 °F 23% 29.56 in - Calm Calm - N/A   Unknown
6:56 PM 60.1 °F - 39.9 °F 47% 29.55 in - South 10.4 mph - N/A   Unknown
7:56 PM 57.0 °F - 41.0 °F 55% 29.55 in - South 11.5 mph - N/A   Unknown
8:56 PM 53.1 °F - 41.0 °F 64% 29.53 in - SSE 5.8 mph - N/A   Unknown
9:56 PM 52.0 °F - 41.0 °F 66% 29.49 in - South 12.7 mph - N/A   Unknown
10:56 PM 52.0 °F - 41.0 °F 66% 29.47 in - South 10.4 mph - N/A   Unknown
11:56 PM 51.1 °F - 39.0 °F 63% 29.46 in - SSE 5.8 mph - N/A   Unknown